VE7PMC Weather Reports


Display with metric or nautical units.
time (UTC)temp
F
wind
direction
speed
MPH
gust
MPH
rain 1hr
in
rain 24hr
in
rain mn
in
humidity
%
barometer
mb
20260504081540 0 0.0 0.0 0.00 0.00 0.00 1004.5
20260504044544 62 0.0 0.0 0.00 0.00 0.00 1003.6
20260504043049 0 0.0 0.0 0.00 0.00 0.00 1003.5
20260504041613 0 0.0 0.0 0.00 0.00 0.00 1003.5
20260504040038 0 0.0 0.0 0.00 0.00 0.00 1003.6
20260504034545 0 0.0 0.0 0.00 0.00 0.00 1003.5
20260504033041 73 0.0 0.0 0.00 0.00 0.00 30 1003.0
20260504031552 73 0.0 0.0 0.00 0.00 0.00 30 1003.0
20260504030116 73 340 0.0 0.0 0.00 0.00 0.00 30 1003.4
20260504024544 73 340 0.0 0.0 0.00 0.00 0.00 27 1003.3
20260504023048 74 340 0.0 0.0 0.00 0.00 0.00 27 1003.2
20260504021552 76 0.0 0.0 0.00 0.00 0.00 22 1003.1
20260504020057 77 340 0.0 0.0 0.00 0.00 0.00 22 1003.1
20260504014543 79 340 0.0 0.0 0.00 0.00 0.00 22 1003.0
20260504013106 80 340 1.0 0.0 0.00 0.00 0.00 19 1002.9
20260504011553 80 340 0.0 0.0 0.00 0.00 0.00 19 1003.1
20260504010045 80 342 1.0 0.0 0.00 0.00 0.00 19 1003.3
20260504004549 80 0.0 0.0 0.00 0.00 0.00 19 1003.5
20260504003042 80 342 0.0 0.0 0.00 0.00 0.00 19 1003.7
20260504001548 80 340 0.0 0.0 0.00 0.00 0.00 19 1003.7
20260504000051 80 0.0 0.0 0.00 0.00 0.00 19 1003.9
20260503234559 80 340 2.0 0.0 0.00 0.00 0.00 19 1004.0
20260503233046 80 348 0.0 0.0 0.00 0.00 0.00 19 1004.1
20260503231548 81 349 0.0 0.0 0.00 0.00 0.00 19 1004.4
20260503230112 80 342 1.0 0.0 0.00 0.00 0.00 19 1005.2
20260503224553 81 345 0.0 0.0 0.00 0.00 0.00 19 1005.3
20260503223055 81 14 0.0 0.0 0.00 0.00 0.00 19 1005.5
20260503221617 82 33 0.0 0.0 0.00 0.00 0.00 18 1005.6
20260503220040 81 328 1.0 0.0 0.00 0.00 0.00 19 1005.8
20260503214549 81 346 1.0 0.0 0.00 0.00 0.00 18 1006.0
20260503213053 80 346 0.0 0.0 0.00 0.00 0.00 20 1006.3
20260503211555 79 333 0.0 0.0 0.00 0.00 0.00 19 1006.6
20260503210039 78 340 1.0 0.0 0.00 0.00 0.00 20 1006.5
20260503204545 78 346 0.0 0.0 0.00 0.00 0.00 21 1006.8
20260503203049 77 324 0.0 0.0 0.00 0.00 0.00 22 1007.0
20260503201555 77 324 0.0 0.0 0.00 0.00 0.00 22 1007.4
20260503200038 76 324 0.0 0.0 0.00 0.00 0.00 24 1007.9
20260503194540 75 325 0.0 0.0 0.00 0.00 0.00 22 1008.3
20260503193044 74 325 0.0 0.0 0.00 0.00 0.00 26 1008.5
20260503191551 74 325 0.0 0.0 0.00 0.00 0.00 24 1008.9
20260503190115 73 325 0.0 0.0 0.00 0.00 0.00 26 1009.1
20260503184556 73 325 0.0 0.0 0.00 0.00 0.00 25 1009.3
20260503183038 72 325 0.0 0.0 0.00 0.00 0.00 25 1009.8
20260503181550 71 338 0.0 0.0 0.00 0.00 0.00 27 1009.0
20260503180052 70 338 0.0 0.0 0.00 0.00 0.00 28 1010.1
20260503174614 69 338 0.0 0.0 0.00 0.00 0.00 30 1010.1
20260503173116 68 338 0.0 0.0 0.00 0.00 0.00 32 1010.3
20260503171556 68 338 0.0 0.0 0.00 0.00 0.00 28 1010.6